| time (UTC) | temp C | wind direction | speed KPH | gust KPH | rain 1hr cm | rain 24hr cm | rain mn cm | humidity % | barometer mb |
| 20260504160210 | 21 | 279 | 0.0 | 0.0 | 0.00 | 0.00 | 0.00 | 40 | 1010.4 |
| 20260504150210 | 22 | 360 | 0.0 | 0.0 | 0.00 | 0.00 | 0.00 | 34 | 1010.1 |
| 20260504140209 | 22 | 360 | 0.0 | 0.0 | 0.00 | 0.00 | 0.00 | 35 | 1010.6 |
| 20260504130215 | 23 | 142 | 0.0 | 0.0 | 0.00 | 0.00 | 0.00 | 39 | 1010.8 |
| 20260504120210 | 20 | 42 | 0.0 | 0.0 | 0.00 | 0.00 | 0.00 | 44 | 1011.3 |
| 20260504110210 | 20 | 42 | 0.0 | 0.0 | 0.00 | 0.00 | 0.00 | 47 | 1011.6 |
| 20260504100212 | 20 | 62 | 0.0 | 0.0 | 0.00 | 0.00 | 0.00 | 50 | 1012.2 |
| 20260504080210 | 16 | 360 | 0.0 | 0.0 | 0.00 | 0.00 | 0.00 | 60 | 1013.3 |
| 20260504070212 | 14 | 38 | 0.0 | 0.0 | 0.00 | 0.00 | 0.00 | 69 | 1013.3 |
| 20260504060212 | 13 | 51 | 0.0 | 0.0 | 0.00 | 0.00 | 0.00 | 67 | 1013.3 |
| 20260504050210 | 11 | 100 | 0.0 | 0.0 | 0.00 | 0.00 | 0.00 | 73 | 1013.2 |
| 20260504043211 | 11 | 100 | 0.0 | 0.0 | 0.00 | 0.00 | 0.00 | 78 | 1013.4 |
| 20260504040211 | 11 | 100 | 0.0 | 0.0 | 0.00 | 0.00 | 0.00 | 79 | 1013.3 |
| 20260504033211 | 11 | 360 | 0.0 | 0.0 | 0.00 | 0.00 | 0.00 | 78 | 1013.7 |
| 20260504030212 | 11 | 360 | 0.0 | 0.0 | 0.00 | 0.00 | 0.00 | 78 | 1013.9 |
| 20260504023211 | 11 | 360 | 0.0 | 0.0 | 0.00 | 0.00 | 0.00 | 77 | 1013.9 |
| 20260504020212 | 11 | 360 | 0.0 | 0.0 | 0.00 | 0.00 | 0.00 | 77 | 1013.7 |
| 20260504013211 | 11 | 360 | 0.0 | 0.0 | 0.00 | 0.00 | 0.00 | 76 | 1013.7 |
| 20260504010211 | 11 | 360 | 0.0 | 0.0 | 0.00 | 0.00 | 0.00 | 77 | 1013.9 |
| 20260504003210 | 11 | 360 | 0.0 | 0.0 | 0.00 | 0.00 | 0.00 | 77 | 1014.2 |
| 20260504000208 | 11 | 360 | 0.0 | 0.0 | 0.00 | 0.00 | 0.00 | 74 | 1014.3 |
| 20260503233209 | 11 | 360 | 0.0 | 0.0 | 0.00 | 0.00 | 0.00 | 72 | 1014.4 |
| 20260503230209 | 12 | 360 | 0.0 | 0.0 | 0.00 | 0.00 | 0.00 | 72 | 1014.4 |
| 20260503223210 | 12 | 360 | 0.0 | 0.0 | 0.00 | 0.00 | 0.00 | 72 | 1014.4 |
| 20260503220212 | 12 | 360 | 0.0 | 0.0 | 0.00 | 0.00 | 0.00 | 70 | 1014.1 |
| 20260503213210 | 12 | 360 | 0.0 | 0.0 | 0.00 | 0.00 | 0.00 | 68 | 1013.9 |
| 20260503210211 | 13 | 360 | 0.0 | 0.0 | 0.00 | 0.00 | 0.00 | 67 | 1013.7 |
| 20260503203209 | 13 | 360 | 0.0 | 0.0 | 0.00 | 0.00 | 0.00 | 64 | 1013.4 |
| 20260503200211 | 14 | 360 | 0.0 | 0.0 | 0.00 | 0.00 | 0.00 | 61 | 1013.1 |
| 20260503193210 | 15 | 360 | 0.0 | 0.0 | 0.00 | 0.00 | 0.00 | 60 | 1012.8 |
| 20260503190210 | 15 | 286 | 0.0 | 0.0 | 0.00 | 0.00 | 0.00 | 57 | 1012.1 |
| 20260503183209 | 16 | 213 | 0.0 | 0.0 | 0.00 | 0.00 | 0.00 | 55 | 1012.1 |
| 20260503180210 | 20 | 360 | 0.0 | 0.0 | 0.00 | 0.00 | 0.00 | 49 | 1011.3 |
| 20260503173209 | 20 | 360 | 0.0 | 0.0 | 0.00 | 0.00 | 0.00 | 47 | 1011.2 |
| 20260503170211 | 20 | 360 | 0.0 | 0.0 | 0.00 | 0.00 | 0.00 | 46 | 1011.0 |